Radiation Dose at Monitoring Post of Fukushima Daini Nuclear Power Station
Date,Time,MP-1(microSv/h),MP-2(microSv/h),MP-3(microSv/h),MP-4(microSv/h),MP-5(microSv/h),MP-6(microSv/h),MP-7(microSv/h),Wind Direction,Wind Velocity(m/s),Rain
2019/05/27,00:00,0.199,0.180,0.304,0.287,0.274,0.152,0.094,west-southwest,3.0,No
2019/05/27,00:10,0.196,0.181,0.302,0.284,0.277,0.152,0.093,west-southwest,1.8,No
2019/05/27,00:20,0.199,0.180,0.305,0.286,0.274,0.151,0.094,west-northwest,1.2,No
2019/05/27,00:30,0.196,0.180,0.304,0.284,0.277,0.151,0.093,west-northwest,1.6,No
2019/05/27,00:40,0.198,0.181,0.305,0.285,0.273,0.151,0.094,north-northwest,0.7,No
2019/05/27,00:50,0.196,0.181,0.302,0.284,0.275,0.151,0.094,north-northeast,0.6,No
2019/05/27,01:00,0.199,0.181,0.304,0.285,0.276,0.151,0.094,northeast,0.8,No
2019/05/27,01:10,0.197,0.180,0.302,0.284,0.275,0.151,0.094,-,CALM,No
2019/05/27,01:20,0.199,0.181,0.304,0.285,0.275,0.152,0.093,northeast,0.7,No
2019/05/27,01:30,0.196,0.180,0.303,0.284,0.274,0.151,0.094,north,0.7,No
2019/05/27,01:40,0.197,0.180,0.304,0.287,0.276,0.151,0.094,north,0.9,No
2019/05/27,01:50,0.197,0.180,0.303,0.283,0.275,0.151,0.094,north-northeast,1.7,No
2019/05/27,02:00,0.198,0.181,0.305,0.286,0.277,0.151,0.092,north,1.6,No
2019/05/27,02:10,0.197,0.181,0.303,0.285,0.275,0.150,0.095,north,1.4,No
2019/05/27,02:20,0.198,0.181,0.305,0.284,0.277,0.151,0.093,north-northwest,2.9,No
2019/05/27,02:30,0.197,0.182,0.303,0.285,0.274,0.151,0.093,north-northwest,2.4,No
2019/05/27,02:40,0.198,0.180,0.307,0.284,0.277,0.151,0.094,north-northwest,2.5,No
2019/05/27,02:50,0.198,0.182,0.302,0.287,0.274,0.150,0.094,north,3.0,No
2019/05/27,03:00,0.199,0.181,0.304,0.284,0.278,0.151,0.094,north,3.2,No
2019/05/27,03:10,0.197,0.181,0.303,0.287,0.275,0.150,0.093,north,3.0,No
2019/05/27,03:20,0.199,0.181,0.304,0.285,0.276,0.152,0.094,north,1.9,No
2019/05/27,03:30,0.196,0.180,0.304,0.287,0.275,0.150,0.093,north-northeast,2.0,No
2019/05/27,03:40,0.198,0.181,0.304,0.286,0.276,0.151,0.094,north-northeast,2.2,No
2019/05/27,03:50,0.198,0.181,0.304,0.286,0.276,0.151,0.094,north,2.3,No
2019/05/27,04:00,0.199,0.181,0.302,0.286,0.275,0.151,0.093,north,1.9,No
2019/05/27,04:10,0.197,0.181,0.304,0.287,0.277,0.151,0.093,north,2.2,No
2019/05/27,04:20,0.198,0.182,0.303,0.285,0.275,0.150,0.094,north-northeast,2.9,No
2019/05/27,04:30,0.197,0.181,0.304,0.285,0.277,0.152,0.094,north,2.6,No
2019/05/27,04:40,0.198,0.181,0.301,0.286,0.275,0.151,0.094,north,1.4,No
2019/05/27,04:50,0.197,0.180,0.305,0.285,0.278,0.151,0.094,north-northeast,1.8,No
2019/05/27,05:00,0.198,0.181,0.302,0.286,0.274,0.151,0.093,north-northeast,2.1,No
2019/05/27,05:10,0.197,0.180,0.305,0.286,0.277,0.150,0.095,north-northeast,3.2,No
2019/05/27,05:20,0.198,0.181,0.303,0.285,0.274,0.152,0.093,north-northeast,2.5,No
2019/05/27,05:30,0.198,0.182,0.304,0.286,0.277,0.151,0.093,north-northeast,2.3,No
2019/05/27,05:40,0.198,0.181,0.303,0.286,0.276,0.151,0.094,north-northeast,2.4,No
2019/05/27,05:50,0.198,0.180,0.305,0.285,0.274,0.150,0.093,north-northeast,2.7,No
2019/05/27,06:00,0.197,0.182,0.302,0.286,0.276,0.151,0.094,north-northeast,2.0,No
2019/05/27,06:10,0.198,0.180,0.304,0.284,0.275,0.151,0.093,north-northeast,2.7,No
2019/05/27,06:20,0.196,0.181,0.302,0.285,0.273,0.151,0.094,north-northeast,2.1,No
2019/05/27,06:30,0.198,0.181,0.302,0.286,0.276,0.150,0.093,north-northeast,2.0,No
2019/05/27,06:40,0.198,0.181,0.303,0.283,0.276,0.151,0.094,north-northeast,1.8,No
2019/05/27,06:50,0.198,0.179,0.303,0.288,0.275,0.152,0.094,north,1.7,No
2019/05/27,07:00,0.199,0.179,0.305,0.285,0.274,0.152,0.094,north,1.6,No
2019/05/27,07:10,0.196,0.179,0.302,0.283,0.278,0.151,0.093,north,1.6,No
2019/05/27,07:20,0.197,0.181,0.301,0.286,0.274,0.152,0.093,north-northwest,1.1,No
2019/05/27,07:30,0.197,0.181,0.300,0.286,0.274,0.151,0.093,north-northwest,0.8,No
2019/05/27,07:40,0.197,0.180,0.300,0.283,0.277,0.151,0.094,west-northwest,2.0,No
2019/05/27,07:50,0.198,0.179,0.301,0.282,0.277,0.151,0.093,west,1.4,No
2019/05/27,08:00,0.198,0.180,0.300,0.282,0.276,0.152,0.094,west-northwest,1.3,No
2019/05/27,08:10,0.197,0.180,0.300,0.282,0.273,0.150,0.094,northwest,1.7,No
2019/05/27,08:20,0.195,0.181,0.300,0.282,0.273,0.151,0.094,northwest,1.4,No
2019/05/27,08:30,0.195,0.180,0.301,0.284,0.274,0.152,0.094,northwest,1.7,No
2019/05/27,08:40,0.197,0.180,0.301,0.285,0.273,0.151,0.093,north-northwest,2.3,No
2019/05/27,08:50,0.199,0.180,0.301,0.286,0.274,0.151,0.093,north,2.0,No
2019/05/27,09:00,0.198,0.180,0.301,0.285,0.276,0.150,0.094,north,1.8,No
2019/05/27,09:10,0.198,0.181,0.302,0.284,0.275,0.152,0.094,north-northeast,3.0,No
2019/05/27,09:20,0.198,0.181,0.301,0.284,0.275,0.151,0.093,north-northeast,2.5,No
2019/05/27,09:30,0.196,0.180,0.303,0.285,0.276,0.152,0.093,northeast,3.2,No
2019/05/27,09:40,0.197,0.180,0.303,0.286,0.278,0.151,0.093,northeast,2.8,No
2019/05/27,09:50,0.196,0.183,0.306,0.286,0.276,0.151,0.094,east-northeast,2.5,No
2019/05/27,10:00,0.197,0.181,0.309,0.286,0.275,0.151,0.094,east-northeast,2.1,No
2019/05/27,10:10,0.197,0.181,0.306,0.286,0.274,0.152,0.094,east,2.5,No
2019/05/27,10:20,0.195,0.181,0.304,0.284,0.275,0.152,0.093,east-southeast,3.2,No
2019/05/27,10:30,0.196,0.181,0.303,0.285,0.274,0.152,0.093,east-southeast,2.9,No
2019/05/27,10:40,0.196,0.180,0.303,0.284,0.274,0.150,0.092,east-southeast,1.7,No
2019/05/27,10:50,0.195,0.179,0.303,0.284,0.275,0.151,0.094,east-northeast,1.4,No
2019/05/27,11:00,0.196,0.180,0.302,0.284,0.275,0.151,0.093,east-northeast,1.9,No
2019/05/27,11:10,0.196,0.179,0.303,0.284,0.276,0.151,0.094,north-northeast,1.1,No
2019/05/27,11:20,0.195,0.179,0.303,0.283,0.275,0.151,0.094,north-northeast,1.6,No
2019/05/27,11:30,0.195,0.180,0.303,0.285,0.275,0.152,0.093,north,1.9,No
2019/05/27,11:40,0.197,0.181,0.304,0.286,0.276,0.151,0.093,northeast,2.3,No
2019/05/27,11:50,0.197,0.181,0.302,0.284,0.275,0.151,0.093,north-northeast,1.6,No
2019/05/27,12:00,0.196,0.180,0.304,0.284,0.275,0.151,0.093,east-northeast,2.8,No
2019/05/27,12:10,0.198,0.179,0.304,0.285,0.276,0.152,0.093,east-northeast,3.1,No
2019/05/27,12:20,0.196,0.181,0.304,0.286,0.276,0.152,0.093,east-northeast,3.3,No
2019/05/27,12:30,0.196,0.181,0.304,0.286,0.276,0.151,0.094,east-northeast,3.0,No
2019/05/27,12:40,0.197,0.181,0.304,0.285,0.275,0.151,0.093,east,2.9,No
2019/05/27,12:50,0.196,0.180,0.304,0.285,0.276,0.151,0.093,southeast,2.1,No
2019/05/27,13:00,0.197,0.180,0.304,0.286,0.274,0.151,0.093,southeast,2.4,No
2019/05/27,13:10,0.197,0.180,0.303,0.285,0.275,0.152,0.093,southeast,3.0,No
2019/05/27,13:20,0.197,0.181,0.303,0.286,0.274,0.151,0.093,southeast,2.6,No
2019/05/27,13:30,0.198,0.180,0.302,0.285,0.275,0.151,0.093,east-southeast,1.2,No
2019/05/27,13:40,0.196,0.180,0.302,0.286,0.276,0.151,0.092,southeast,1.4,No
2019/05/27,13:50,0.196,0.180,0.303,0.285,0.275,0.151,0.092,south-southeast,2.8,No
2019/05/27,14:00,0.198,0.181,0.303,0.284,0.276,0.152,0.093,south-southeast,3.4,No
2019/05/27,14:10,0.197,0.180,0.304,0.284,0.275,0.152,0.093,south-southeast,2.8,No
2019/05/27,14:20,0.198,0.181,0.304,0.284,0.275,0.151,0.093,south-southeast,3.3,No
2019/05/27,14:30,0.198,0.180,0.303,0.285,0.276,0.152,0.092,south-southeast,3.5,No
2019/05/27,14:40,0.198,0.180,0.303,0.284,0.276,0.151,0.093,south-southeast,3.8,No
2019/05/27,14:50,0.197,0.180,0.304,0.284,0.276,0.151,0.092,south-southeast,4.9,No
2019/05/27,15:00,0.197,0.180,0.303,0.284,0.276,0.152,0.093,south-southeast,5.1,No
2019/05/27,15:10,0.196,0.180,0.302,0.283,0.275,0.151,0.093,south-southeast,4.8,No
2019/05/27,15:20,0.195,0.179,0.303,0.288,0.275,0.151,0.093,south-southeast,5.9,No
2019/05/27,15:30,0.196,0.180,0.303,0.288,0.275,0.151,0.093,south-southeast,5.1,No
2019/05/27,15:40,0.196,0.179,0.302,0.288,0.275,0.152,0.094,south-southeast,6.5,No
2019/05/27,15:50,0.196,0.179,0.302,0.285,0.274,0.151,0.093,south,7.6,No
2019/05/27,16:00,0.197,0.180,0.302,0.284,0.274,0.151,0.092,south-southeast,6.6,No
2019/05/27,16:10,0.196,0.182,0.301,0.287,0.273,0.152,0.094,south-southeast,7.0,No
2019/05/27,16:20,0.197,0.181,0.305,0.287,0.274,0.152,0.094,south,7.1,No
2019/05/27,16:30,0.197,0.181,0.305,0.284,0.272,0.153,0.094,south,7.5,No
2019/05/27,16:40,0.199,0.181,0.303,0.284,0.273,0.150,0.093,south,7.4,No
2019/05/27,16:50,0.197,0.182,0.303,0.289,0.273,0.151,0.093,south,7.3,No
2019/05/27,17:00,0.196,0.181,0.305,0.287,0.273,0.152,0.093,south-southeast,7.1,No
2019/05/27,17:10,0.196,0.180,0.306,0.284,0.274,0.152,0.093,south,7.8,No
2019/05/27,17:20,0.195,0.181,0.303,0.284,0.273,0.152,0.093,south,7.6,No
2019/05/27,17:30,0.198,0.182,0.302,0.289,0.273,0.151,0.093,south,7.7,No
2019/05/27,17:40,0.198,0.181,0.303,0.287,0.274,0.151,0.092,south-southeast,7.6,No
2019/05/27,17:50,0.196,0.180,0.306,0.285,0.277,0.151,0.093,south,7.9,No
2019/05/27,18:00,0.197,0.182,0.303,0.288,0.276,0.150,0.093,south,6.7,No
2019/05/27,18:10,0.198,0.180,0.305,0.286,0.274,0.152,0.092,south,5.3,No
2019/05/27,18:20,0.196,0.180,0.305,0.284,0.275,0.152,0.093,south,5.7,No
2019/05/27,18:30,0.196,0.181,0.304,0.288,0.278,0.151,0.092,south,5.2,No
2019/05/27,18:40,0.199,0.181,0.304,0.286,0.276,0.151,0.094,south,5.7,No
2019/05/27,18:50,0.197,0.181,0.305,0.286,0.276,0.151,0.092,south,6.6,No
2019/05/27,19:00,0.197,0.182,0.303,0.287,0.277,0.151,0.093,south,7.0,No
2019/05/27,19:10,0.199,0.181,0.306,0.285,0.274,0.151,0.092,south,7.1,No
2019/05/27,19:20,0.196,0.180,0.305,0.290,0.278,0.150,0.093,south,6.6,No
2019/05/27,19:30,0.199,0.181,0.304,0.286,0.276,0.152,0.092,south,7.3,No
2019/05/27,19:40,0.197,0.182,0.304,0.287,0.274,0.150,0.092,south-southwest,7.4,No
2019/05/27,19:50,0.198,0.180,0.303,0.287,0.278,0.151,0.092,south-southwest,8.7,No
2019/05/27,20:00,0.197,0.180,0.306,0.285,0.274,0.151,0.093,south-southwest,8.4,No
2019/05/27,20:10,0.197,0.181,0.304,0.288,0.276,0.151,0.094,south-southwest,8.1,No
2019/05/27,20:20,0.198,0.181,0.304,0.284,0.276,0.151,0.094,south,7.9,No
2019/05/27,20:30,0.197,0.181,0.305,0.288,0.274,0.151,0.094,south,7.8,No
2019/05/27,20:40,0.199,0.182,0.305,0.285,0.278,0.151,0.093,south,6.2,No
2019/05/27,20:50,0.196,0.180,0.307,0.288,0.274,0.151,0.093,south,5.2,No
2019/05/27,21:00,0.198,0.181,0.304,0.287,0.275,0.150,0.093,south,5.9,No
2019/05/27,21:10,0.197,0.180,0.307,0.287,0.275,0.150,0.093,south-southwest,6.3,No
2019/05/27,21:20,0.198,0.180,0.305,0.287,0.275,0.151,0.094,south,7.0,No
2019/05/27,21:30,0.197,0.182,0.307,0.288,0.275,0.150,0.093,south,7.3,No
2019/05/27,21:40,0.198,0.180,0.302,0.287,0.274,0.151,0.093,south,6.7,No
2019/05/27,21:50,0.197,0.181,0.306,0.286,0.277,0.151,0.093,south,6.2,No
2019/05/27,22:00,0.197,0.181,0.304,0.287,0.274,0.150,0.093,south,6.2,No
2019/05/27,22:10,0.198,0.182,0.307,0.287,0.275,0.151,0.092,south,5.6,No
2019/05/27,22:20,0.197,0.180,0.304,0.288,0.277,0.151,0.094,south,5.2,No
2019/05/27,22:30,0.199,0.182,0.307,0.286,0.275,0.151,0.093,south-southwest,4.6,No
2019/05/27,22:40,0.198,0.182,0.305,0.287,0.277,0.152,0.094,south-southwest,4.6,No
2019/05/27,22:50,0.198,0.182,0.307,0.286,0.274,0.151,0.093,south-southwest,4.0,No
2019/05/27,23:00,0.197,0.180,0.304,0.289,0.278,0.151,0.093,south-southwest,4.0,No
2019/05/27,23:10,0.198,0.183,0.306,0.286,0.274,0.151,0.093,south-southwest,4.0,No
2019/05/27,23:20,0.198,0.182,0.306,0.287,0.277,0.152,0.094,south,3.3,No
2019/05/27,23:30,0.199,0.182,0.306,0.287,0.275,0.152,0.094,south,3.4,No
2019/05/27,23:40,0.198,0.182,0.307,0.289,0.277,0.152,0.094,south,3.7,No
2019/05/27,23:50,0.198,0.181,0.306,0.287,0.276,0.151,0.094,south,4.4,No
